[[{"header":{"parameterUnit":"m.s-1","parameterCategory":1,"la1":30.2992,"la2":30.254,"lo1":-89.0895,"lo2":-89.0443,"dy":0.0025,"dx":0.0025,"nx":19,"ny":19,"refTime":"2026-04-18T09:00:00:Z","depth":0,"parameterNumber":2,"parameterNumberName":"U-component_of_WINDS"},"data":[0,0,0,-2.5663,-2.5663,-2.5668,-2.5668,-2.5687,-2.5688,0,0,0,0,0,0,0,0,0,0,0,-2.5669,-2.5669,-2.5663,-2.5663,-2.5668,-2.5668,-2.5687,-2.5688,0,0,0,0,0,0,0,0,0,0,0,-2.5669,-2.5669,-2.567,-2.5663,-2.5668,-2.5668,-2.5687,-2.5679,0,0,0,0,0,0,0,0,0,0,-2.5672,-2.5685,-2.5669,-2.567,-2.5663,-2.5668,-2.5668,-2.5678,-2.5679,-2.569,0,-2.5702,0,-2.5695,-2.569,-2.569,0,0,0,-2.5657,-2.5684,-2.5678,-2.567,-2.5663,-2.5668,-2.5664,-2.5679,-2.568,-2.5692,-2.5702,-2.5703,-2.5696,-2.569,-2.569,-2.5772,-2.5773,0,0,-2.5657,-2.5674,-2.5678,-2.568,-2.568,-2.5664,-2.5665,-2.5679,-2.5692,-2.5702,-2.5703,-2.5696,-2.569,-2.569,-2.5772,-2.5772,0,0,0,-2.566,-2.5674,-2.5668,-2.5679,-2.5679,-2.5665,-2.5665,-2.5691,-2.5688,-2.5703,-2.5696,-2.569,-2.5691,-2.5771,-2.5772,-2.5821,0,0,0,-2.566,-2.5676,-2.5668,-2.5679,-2.5679,-2.5685,-2.5677,-2.5687,-2.5688,-2.5696,-2.569,-2.5691,-2.577,-2.5771,-2.5818,-2.5841,0,0,0,-2.5666,-2.5676,-2.568,-2.5679,-2.5682,-2.5685,-2.5682,-2.5687,-2.5684,-2.569,-2.5691,-2.577,-2.5771,-2.5815,-2.5837,-2.5868,0,0,0,-2.5678,-2.5723,-2.5681,-2.5729,-2.5682,-2.5715,-2.5682,-2.5705,-2.5716,-2.5691,-2.577,-2.5772,-2.5814,-2.5834,-2.5866,-2.5898,-2.5913,0,0,-2.5745,-2.5732,-2.5759,-2.5721,-2.5766,-2.5713,-2.5764,-2.5758,-2.5743,-2.5763,-2.5765,-2.5819,-2.5837,-2.5868,-2.5989,-2.6002,0,0,0,-2.5786,-2.5806,-2.5814,-2.5825,-2.5821,-2.582,-2.5804,-2.5802,-2.5818,-2.5757,-2.5838,-2.5848,-2.5865,-2.588,-2.589,-2.5904,-2.5779,-2.5779,-2.5779,-2.5907,-2.5884,-2.5928,-2.5906,-2.5917,-2.59,-2.5907,-2.5901,-2.5875,-2.5895,-2.5901,-2.5978,-2.5996,-2.6003,-2.6018,-2.5916,-2.5916,-2.5916,-2.5916,-2.6004,-2.6028,-2.5993,-2.6022,-2.5998,-2.6023,-2.6008,-2.5989,-2.6008,-2.5971,-2.5986,-2.5948,-2.6017,-2.6029,-2.592,-2.5919,-2.5919,-2.5918,-2.5918,-2.6081,-2.6089,-2.6085,-2.6098,-2.611,-2.6086,-2.6106,-2.6084,-2.6063,-2.6077,-2.6081,-2.608,-2.6077,-2.608,-2.6081,-2.6081,-2.6081,-2.6081,-2.6081,-2.6163,-2.6157,-2.6176,-2.6175,-2.6179,-2.6181,-2.6163,-2.6166,-2.6164,-2.6146,-2.6146,-2.6119,-2.6028,-2.6005,-2.6085,-2.6085,-2.6084,-2.6084,-2.6084,-2.6271,-2.6243,-2.6273,-2.6277,-2.6274,-2.6288,-2.6258,-2.6266,-2.6265,-2.6276,-2.6245,-2.6181,-2.6166,-2.6158,-2.614,-2.625,-2.625,-2.625,-2.625,-2.6337,-2.6327,-2.6353,-2.636,-2.6364,-2.6341,-2.6375,-2.6362,-2.6343,-2.6342,-2.6322,-2.6295,-2.6288,-2.6278,-2.6267,-2.6249,-2.6385,-2.6385,-2.6385,-2.6403,-2.6392,-2.6426,-2.6407,-2.6403,-2.6399,-2.6431,-2.6441,-2.6414,-2.639,-2.634,-2.6334,-2.629,-2.6277,-2.6253,-2.6237,-2.6204,0,0]},{"header":{"parameterUnit":"m.s-1","parameterCategory":1,"la1":30.2992,"la2":30.254,"lo1":-89.0895,"lo2":-89.0443,"dy":0.0025,"dx":0.0025,"nx":19,"ny":19,"refTime":"2026-04-18T09:00:00:Z","depth":0,"parameterNumber":3,"parameterNumberName":"V-component_of_WINDS"},"data":[0,0,0,-6.7001,-6.7003,-6.7084,-6.7085,-6.7194,-6.7195,0,0,0,0,0,0,0,0,0,0,0,-6.6983,-6.6984,-6.7001,-6.7003,-6.7084,-6.7085,-6.7194,-6.7195,0,0,0,0,0,0,0,0,0,0,0,-6.6983,-6.6984,-6.6985,-6.7004,-6.7084,-6.7085,-6.7193,-6.713,0,0,0,0,0,0,0,0,0,0,-6.7049,-6.7039,-6.6984,-6.6985,-6.7004,-6.7084,-6.7085,-6.7126,-6.7134,-6.716,0,-6.7188,0,-6.7194,-6.7203,-6.7203,0,0,0,-6.6998,-6.7033,-6.705,-6.6985,-6.7005,-6.7084,-6.7046,-6.713,-6.7138,-6.717,-6.719,-6.7194,-6.7196,-6.7204,-6.7204,-6.7385,-6.7386,0,0,-6.6993,-6.7,-6.7045,-6.7056,-6.7047,-6.7044,-6.7049,-6.7135,-6.7156,-6.719,-6.7196,-6.7197,-6.7204,-6.7205,-6.7384,-6.7385,0,0,0,-6.6984,-6.6997,-6.7012,-6.7052,-6.7066,-6.7046,-6.7052,-6.7152,-6.7156,-6.7197,-6.7199,-6.7205,-6.7207,-6.7383,-6.7384,-6.7447,0,0,0,-6.6981,-6.6992,-6.701,-6.7015,-6.7065,-6.7111,-6.7067,-6.715,-6.716,-6.7198,-6.7205,-6.7208,-6.7382,-6.7384,-6.7443,-6.7475,0,0,0,-6.6976,-6.6991,-6.7005,-6.7015,-6.7051,-6.7109,-6.7118,-6.7152,-6.7161,-6.7203,-6.7208,-6.7381,-6.7383,-6.7439,-6.7469,-6.7526,0,0,0,-6.6971,-6.7057,-6.7006,-6.7104,-6.705,-6.7148,-6.7118,-6.7189,-6.7233,-6.7206,-6.7382,-6.7384,-6.7438,-6.7465,-6.7522,-6.7575,-6.7599,0,0,-6.7084,-6.7071,-6.7128,-6.7085,-6.7194,-6.7135,-6.7253,-6.7284,-6.728,-6.735,-6.7354,-6.7444,-6.7468,-6.7525,-6.7725,-6.7744,0,0,0,-6.7166,-6.7207,-6.7234,-6.7278,-6.7307,-6.7334,-6.7347,-6.7359,-6.7419,-6.7318,-6.748,-6.7494,-6.7527,-6.7552,-6.7568,-6.7596,-6.7396,-6.7396,-6.7396,-6.7334,-6.7328,-6.7421,-6.7425,-6.7468,-6.7483,-6.7516,-6.7534,-6.7512,-6.755,-6.7571,-6.7693,-6.7723,-6.7735,-6.7764,-6.7598,-6.7598,-6.7599,-6.7599,-6.7499,-6.7556,-6.7529,-6.761,-6.7602,-6.7669,-6.7686,-6.7669,-6.7729,-6.7677,-6.7705,-6.765,-6.7756,-6.7781,-6.7603,-6.7603,-6.7602,-6.7602,-6.7601,-6.7609,-6.7635,-6.7651,-6.7715,-6.7765,-6.7764,-6.7825,-6.7814,-6.7803,-6.7832,-6.7853,-6.7852,-6.785,-6.7843,-6.7843,-6.7844,-6.7844,-6.7844,-6.7845,-6.7717,-6.7732,-6.7786,-6.7826,-6.7854,-6.7889,-6.7905,-6.7931,-6.7957,-6.7944,-6.7944,-6.7919,-6.7768,-6.773,-6.7851,-6.785,-6.7849,-6.7849,-6.7848,-6.7887,-6.7848,-6.7931,-6.7959,-6.8005,-6.8056,-6.8042,-6.8097,-6.8116,-6.8146,-6.8115,-6.8006,-6.7991,-6.7978,-6.7947,-6.8117,-6.8117,-6.8117,-6.8117,-6.798,-6.7972,-6.8056,-6.8102,-6.8146,-6.8143,-6.8236,-6.825,-6.8257,-6.8268,-6.8242,-6.82,-6.8188,-6.818,-6.8163,-6.8134,-6.8347,-6.8348,-6.8348,-6.8084,-6.8081,-6.8163,-6.8174,-6.821,-6.824,-6.8327,-6.8379,-6.8379,-6.8357,-6.8277,-6.8268,-6.8199,-6.8177,-6.8153,-6.8127,-6.8073,0,0]}]]